Hourly Data Report for December 20, 2006

TORONTO CITY
ONTARIO

43°40'00.000" N
79°24'00.000" W
112.50 m
6158355
71508
XTO

Download Data

Hourly Data (December 2006)
Hourly Data Report for December 20, 2006
TIME
LST
Temp Definition
°C
Dew Point Definition
°C
Rel Hum Definition
%
Precip. Amount Definition
mm

Wind Dir Definition
10's deg

Wind Spd Definition
km/h
Visibility Definition
km
Stn Press Definition
kPa
Hmdx Definition


Wind Chill Definition


Weather Definition


00:00 0.8 -2.6 78   LegendMM LegendMM   101.38     LegendNANA
01:00 0.8 -2.3 80   LegendMM LegendMM   101.31     LegendNANA
02:00 0.7 -2.1 81   LegendMM LegendMM   101.25     LegendNANA
03:00 1.0 -2.1 80   LegendMM LegendMM   101.28     LegendNANA
04:00 0.8 -2.4 79   LegendMM LegendMM   101.24     LegendNANA
05:00 0.9 -2.3 79   LegendMM LegendMM   101.22     LegendNANA
06:00 1.1 -2.4 77   LegendMM LegendMM   101.25     LegendNANA
07:00 0.9 -2.3 79   LegendMM LegendMM   101.22     LegendNANA
08:00 1.3 -2.2 77   LegendMM LegendMM   101.23     LegendNANA
09:00 1.9 -2.2 74   LegendMM LegendMM   101.25     LegendNANA
10:00 2.5 -2.8 68   LegendMM LegendMM   101.23     LegendNANA
11:00 4.1 -2.6 62   LegendMM LegendMM   101.17     LegendNANA
12:00 5.6 -3.6 52   LegendMM LegendMM   101.07     LegendNANA
13:00 6.0 -2.8 53   LegendMM LegendMM   100.99     LegendNANA
14:00 7.8 -6.0 37   LegendMM LegendMM   100.88     LegendNANA
15:00 7.8 -5.3 39   LegendMM LegendMM   100.88     LegendNANA
16:00 7.6 -5.0 40   LegendMM LegendMM   100.86     LegendNANA
17:00 7.2 -4.5 43   LegendMM LegendMM   100.88     LegendNANA
18:00 5.9 -3.0 53   LegendMM LegendMM   100.85     LegendNANA
19:00 5.6 -3.5 52   LegendMM LegendMM   100.89     LegendNANA
20:00 5.5 -3.9 51   LegendMM LegendMM   100.93     LegendNANA
21:00 4.9 -3.0 57   LegendMM LegendMM   100.90     LegendNANA
22:00 5.4 -3.6 52   LegendMM LegendMM   100.90     LegendNANA
23:00 5.1 -3.1 55   LegendMM LegendMM   100.90     LegendNANA

Notes on Data Quality.

Legend

  • E = Estimated
  • M = Missing
  • NA = Not Available*
  • [empty] = Indicates an unobserved value
Date modified: